Wind_Speed
50 50 50 51 51 51 52 53 53 54 54 54 55 55 56 56 58 60 60 60 60 59 63 67 67 71 72 72 76 77 78 79 80 82 83 83 84 85 87 88 90 92 94 95 96 97 98 98 98 98 98 98 99 99 99 99 98 97 97 96 96 97 98 100 101 102 104 106 107 107 108 108 109 110 112 112 113 115 117 120 123 125 126 127 127 128
45 45 46 46 47 47 48 48 49 50 50 51 52 52 53 53 55 59 60 59 59 58 59 63 65 69 70 70 73 75 76 78 79 82 82 83 84 85 87 88 90 92 93 95 96 98 99 99 99 100 100 101 101 101 101 101 100 99 98 97 96 96 97 98 99 100 100 101 103 105 105 105 107 108 110 111 111 112 114 116 119 121 123 125 126 127
41 42 43 43 44 44 45 46 46 46 47 49 50 51 53 53 53 55 58 59 61 60 58 60 62 66 70 70 71 75 77 78 80 82 82 82 84 86 87 88 90 91 92 93 95 96 97 98 99 100 100 101 101 101 101 101 100 100 99 99 98 97 97 96 96 97 97 97 99 101 102 102 104 105 107 108 109 110 112 114 115 117 119 121 123 124
39 40 41 42 43 44 45 47 48 49 50 51 52 53 54 56 56 54 55 58 62 65 63 61 63 67 72 73 73 76 78 80 81 82 82 82 84 85 86 88 88 89 90 91 93 94 95 96 97 99 100 100 100 100 100 100 100 100 100 100 99 98 97 96 96 95 94 93 93 95 97 97 99 101 103 104 106 107 109 111 113 114 116 118 120 122
39 41 43 44 46 47 49 50 51 53 54 54 54 56 57 58 60 60 59 59 63 68 69 67 65 67 73 74 74 76 78 80 81 81 81 82 83 85 86 87 88 88 89 90 91 92 92 94 95 97 98 99 99 99 99 99 99 99 99 99 100 100 99 98 98 97 96 94 92 92 92 92 92 93 95 98 100 103 106 108 110 112 113 115 118 120
43 45 47 48 49 50 52 53 54 55 56 57 58 60 61 61 63 64 65 65 65 67 70 70 68 67 71 75 75 76 78 79 80 79 80 82 83 85 86 87 88 88 88 88 89 89 89 90 92 93 94 95 96 96 96 97 97 96 96 96 98 98 98 98 97 97 96 95 93 92 91 90 89 89 90 92 94 97 100 104 107 109 111 113 114 117
47 49 50 52 53 54 55 57 58 58 59 61 62 63 64 64 65 66 67 68 67 68 71 72 71 69 70 74 76 77 78 78 78 79 80 82 83 85 86 86 86 86 86 86 85 85 86 86 88 89 90 91 92 93 93 94 94 93 93 93 95 95 95 94 93 93 93 92 90 90 89 87 86 86 87 89 91 92 95 99 102 105 107 109 110 113
51 52 54 56 57 58 59 61 61 62 62 63 63 64 65 65 66 66 67 68 69 70 72 74 74 72 70 74 78 79 79 78 78 81 81 82 83 84 84 84 84 84 84 84 83 83 83 85 85 86 86 87 88 89 90 91 91 90 89 90 92 94 94 92 91 90 89 88 87 86 85 83 82 82 83 86 88 89 91 94 97 100 102 104 106 108
55 56 59 60 62 62 63 63 64 64 64 64 64 64 65 66 66 66 66 68 69 70 73 75 76 74 71 74 79 80 80 80 80 81 81 82 83 83 83 83 83 83 83 83 82 82 82 82 83 83 82 82 82 84 85 86 86 85 85 86 88 91 92 91 90 88 87 86 84 83 82 80 79 78 79 81 84 85 87 88 91 94 97 99 102 104
59 61 62 63 64 64 65 66 66 66 66 66 66 66 66 67 67 67 68 69 69 70 72 75 78 78 75 74 79 80 79 80 81 81 81 82 84 84 84 84 84 84 84 83 82 80 79 79 79 79 78 78 78 79 80 82 83 82 81 81 83 86 88 89 87 85 84 83 82 81 79 78 77 77 76 76 78 81 83 83 85 87 91 94 97 99
62 62 63 64 65 66 67 68 69 69 69 69 69 68 67 67 67 67 69 69 69 69 71 75 77 80 80 79 80 80 79 80 82 82 83 84 85 86 86 86 85 84 83 82 80 79 78 77 77 77 76 75 75 75 77 78 80 80 78 78 79 81 83 84 83 81 80 79 78 77 76 74 73 74 74 73 73 75 78 80 81 83 85 87 90 94
63 64 65 66 67 68 68 70 71 72 72 72 73 72 69 68 67 66 68 69 69 68 69 73 75 78 81 83 84 82 80 81 82 83 83 84 85 85 85 85 84 83 82 80 79 77 77 77 76 76 75 73 73 72 73 75 77 78 76 76 76 77 78 78 77 76 76 76 74 73 72 70 69 69 70 70 71 72 74 76 77 79 80 82 84 87
66 66 67 67 68 69 69 70 72 73 74 74 76 77 76 73 70 68 68 69 69 70 71 73 75 76 80 84 85 83 82 83 84 83 83 84 85 85 84 83 82 82 82 80 79 77 78 77 76 76 75 72 71 70 71 73 74 74 74 74 74 74 74 73 72 72 72 71 71 69 68 67 65 64 65 66 68 69 71 72 73 75 77 78 80 82
67 67 68 68 69 69 70 71 73 74 75 76 78 80 81 80 78 75 75 74 72 71 73 76 79 80 82 86 86 84 83 84 84 83 83 84 84 84 83 83 82 81 81 80 79 77 77 77 76 75 74 72 70 70 71 71 71 72 73 73 72 71 71 69 68 68 68 66 66 65 64 62 61 60 60 61 63 65 67 68 70 71 73 75 76 78
69 68 68 69 71 71 72 73 75 76 77 78 80 82 84 85 84 82 81 81 78 75 74 78 81 84 86 88 88 86 85 86 85 84 83 83 84 84 83 82 81 79 79 79 78 77 76 76 75 74 73 71 69 69 70 69 70 71 71 71 70 68 67 66 65 64 63 62 61 60 59 58 57 56 56 57 58 60 62 64 66 67 69 71 72 74
69 71 70 71 72 73 74 75 77 78 79 80 81 83 85 85 86 85 84 85 84 80 79 80 83 86 89 90 89 88 88 87 86 84 83 83 83 83 81 79 78 77 76 76 76 75 75 75 73 72 71 70 68 68 68 68 68 68 68 68 67 65 64 62 62 61 59 58 57 55 55 54 53 53 53 54 54 55 57 59 61 63 64 66 67 69
67 70 71 71 73 74 75 76 78 80 81 82 83 84 85 86 87 87 85 85 85 83 82 84 86 87 91 90 87 88 88 86 85 83 82 82 81 80 79 77 76 75 74 73 73 74 74 74 72 70 69 69 69 68 67 66 67 66 64 64 63 63 62 60 59 57 56 54 53 52 51 51 50 50 50 51 51 52 53 55 56 58 59 61 62 64
66 69 72 72 73 75 76 77 80 82 83 84 84 85 87 88 89 90 90 88 86 84 82 85 89 91 94 94 90 90 89 88 86 83 81 80 79 78 77 76 74 72 72 71 72 73 74 75 74 71 68 68 69 69 67 66 66 65 62 60 59 58 59 57 55 54 52 51 51 49 48 48 48 48 47 48 49 50 51 52 53 54 55 57 58 60
68 69 72 74 75 76 78 80 82 84 85 86 87 88 90 91 91 91 94 94 92 90 86 85 89 94 97 96 95 93 93 92 89 85 82 81 81 80 78 75 72 70 69 69 70 72 73 74 74 73 69 67 67 67 67 66 66 64 60 58 56 54 55 54 52 51 50 48 48 46 46 46 46 47 46 46 47 48 49 50 50 51 52 53 54 56
70 71 73 76 78 79 81 82 85 87 88 89 90 91 92 93 94 93 95 97 97 96 93 87 89 96 100 98 96 96 95 94 92 89 86 85 84 82 80 77 73 69 68 67 69 70 71 73 73 72 70 67 66 65 65 65 63 61 58 54 53 52 51 51 49 48 48 46 45 44 43 44 44 45 45 45 46 46 47 48 48 50 50 51 52 53
73 74 75 77 80 82 84 85 87 89 91 92 93 94 94 96 97 96 96 97 98 99 97 91 89 96 101 99 97 97 96 96 95 92 88 85 83 82 80 78 74 70 68 68 69 70 71 71 71 70 69 66 65 64 64 63 61 58 55 51 50 50 49 48 47 46 45 44 43 42 41 41 41 42 43 44 45 45 46 46 46 48 49 50 51 52
75 77 78 79 81 83 85 87 89 91 93 95 96 97 98 98 100 101 100 99 98 100 100 96 92 95 99 98 98 98 97 96 95 92 88 84 82 80 78 77 73 71 70 69 70 71 71 71 69 68 66 64 63 62 62 61 59 56 53 50 48 48 47 46 45 44 42 42 41 40 39 39 39 39 40 42 43 45 45 46 46 46 47 48 50 51
77 78 79 80 82 84 86 88 90 93 95 97 98 99 100 101 102 104 105 102 99 100 102 99 94 96 98 98 97 97 95 95 93 91 88 83 81 80 78 75 72 70 69 69 69 70 71 71 70 67 65 63 62 61 60 60 58 55 51 49 47 47 46 44 43 42 41 40 39 39 38 38 37 37 38 39 41 43 44 45 46 46 46 47 48 49
80 81 81 81 82 84 87 88 91 95 97 98 100 101 101 103 104 106 107 105 101 100 102 100 95 95 98 97 96 96 94 93 92 90 88 84 81 79 77 74 71 69 68 68 68 70 71 72 71 68 65 63 61 59 59 58 57 54 50 47 46 46 45 43 41 40 40 39 38 37 37 36 36 36 36 37 39 41 43 44 45 45 46 46 47 47
83 85 86 86 85 85 87 89 91 94 98 100 101 103 104 105 106 107 108 107 103 101 103 103 98 94 95 95 94 94 93 92 91 90 88 86 83 80 77 74 71 69 68 68 68 69 70 71 70 68 64 62 60 58 57 56 55 52 49 46 45 45 44 42 39 38 38 37 36 35 35 35 34 35 35 36 37 38 40 42 43 44 44 45 45 45
86 88 91 92 92 92 93 95 96 98 99 101 104 106 107 107 108 109 111 110 107 103 103 106 103 97 95 94 92 91 90 89 89 87 86 85 83 80 77 74 72 71 71 71 70 70 70 70 69 67 64 62 60 58 56 55 54 51 48 45 44 44 44 41 38 37 36 36 35 33 33 33 33 33 33 34 35 36 38 39 41 41 42 43 43 44
89 90 93 95 97 97 98 100 101 103 103 105 106 107 108 109 109 111 113 112 111 107 104 106 106 102 97 94 92 91 89 89 88 87 84 83 81 78 75 74 73 74 75 75 73 72 71 70 68 66 64 62 60 58 56 55 53 50 48 46 43 43 43 41 39 37 36 35 34 32 31 30 31 31 31 32 32 34 35 36 38 39 40 41 42 43
91 92 95 97 98 99 100 101 103 105 107 108 109 109 110 111 112 113 114 114 112 111 106 104 104 103 99 95 94 93 93 91 90 87 84 82 79 77 75 73 73 74 76 76 75 74 72 70 67 64 63 61 59 57 56 54 52 49 47 46 43 42 41 41 39 38 37 36 34 32 30 29 29 29 29 30 30 31 32 33 34 35 37 38 40 41
93 94 96 98 99 100 102 103 105 107 108 109 111 112 113 114 114 114 116 115 113 112 109 105 103 103 101 99 97 97 95 93 91 88 86 83 80 77 75 74 74 75 76 76 75 73 71 69 66 63 61 59 57 55 53 52 50 48 46 45 42 41 40 40 39 38 37 36 34 32 30 28 27 27 27 27 28 28 29 29 30 31 33 35 37 38
96 97 98 99 101 102 103 105 107 108 109 111 112 114 114 115 115 116 117 116 113 112 111 109 106 105 105 103 101 99 97 94 92 89 86 84 81 77 75 75 75 76 76 76 73 70 68 66 63 61 59 58 55 53 51 50 48 46 45 43 41 39 38 38 38 38 37 36 35 32 30 28 27 26 26 26 26 26 27 27 27 28 30 32 34 36
99 100 100 101 102 103 104 105 107 109 111 112 113 114 115 115 116 117 118 118 116 113 112 111 109 107 105 103 100 98 97 94 92 88 85 82 80 77 75 74 75 77 77 75 72 68 64 62 60 59 58 56 54 52 50 48 46 44 44 43 40 38 36 36 36 36 36 36 35 33 30 28 26 25 25 25 25 25 25 26 26 27 28 30 32 34
100 102 102 103 104 105 106 107 108 109 111 112 114 114 116 116 117 119 121 121 120 119 116 114 112 109 106 103 100 98 96 94 91 87 83 80 78 76 76 76 77 78 76 74 71 67 62 59 58 57 55 54 52 51 48 46 44 42 42 41 39 37 35 35 35 35 34 34 33 32 30 28 25 24 24 24 24 24 25 25 26 27 28 29 31 32
101 103 105 106 107 107 108 109 110 112 112 114 116 117 118 119 119 120 123 124 123 122 121 118 115 112 109 105 101 98 95 94 92 88 84 81 78 77 78 79 80 79 76 73 69 65 61 57 56 55 53 51 50 48 46 44 42 40 39 38 37 36 34 33 32 32 32 32 31 31 29 27 25 24 23 24 24 24 25 26 26 27 27 28 29 29
102 105 107 109 110 111 111 111 112 114 116 117 119 121 121 122 122 122 124 126 125 123 121 118 116 113 110 107 103 100 97 96 94 91 86 83 81 79 80 81 81 79 75 71 67 63 58 55 54 53 51 49 47 46 43 41 40 38 37 36 35 35 34 32 31 29 28 28 29 29 28 27 25 23 23 24 24 25 25 26 26 26 26 27 28 29
102 105 108 111 112 114 115 115 116 118 120 121 122 123 124 125 126 125 126 128 127 125 121 119 116 114 112 110 107 103 99 97 95 92 87 84 82 81 81 81 79 76 72 68 64 61 56 52 51 50 49 47 46 45 42 40 38 37 36 34 33 32 32 32 30 28 26 25 26 27 26 25 24 23 23 23 25 25 26 25 25 25 25 26 27 28
104 107 110 112 114 116 117 118 119 120 122 123 124 125 126 128 130 130 130 130 129 128 125 122 119 117 115 112 109 104 100 96 94 91 87 83 81 81 81 81 78 74 70 66 64 60 55 51 48 48 47 45 44 43 41 39 38 36 35 33 31 30 30 30 29 28 26 25 25 25 25 24 23 22 22 23 25 25 25 24 24 23 23 24 25 26
106 109 112 114 117 119 120 120 121 121 123 125 127 129 130 132 134 135 135 134 133 131 129 126 123 120 117 113 110 105 99 95 92 89 85 82 81 82 83 83 80 75 70 67 64 61 56 51 48 47 46 44 43 41 39 38 37 36 34 32 31 30 29 29 28 27 26 25 25 24 23 22 21 21 22 23 24 24 23 23 23 22 22 23 24 24
107 110 114 117 119 122 123 124 125 126 127 128 131 133 135 136 137 137 137 136 135 134 132 129 126 122 118 115 111 107 101 95 92 89 85 82 83 84 84 84 81 76 72 67 64 60 55 51 49 47 45 44 42 40 38 37 36 35 34 32 31 31 30 29 27 26 26 25 24 23 22 20 19 19 20 21 21 21 22 22 22 21 22 22 23 23
109 113 116 119 121 124 126 128 130 131 132 132 134 135 137 138 139 138 137 136 136 136 134 131 127 124 120 116 113 109 105 99 95 91 86 83 85 87 87 84 80 76 72 68 64 60 55 50 48 47 46 43 41 39 37 36 36 35 33 32 31 31 30 28 27 26 25 24 23 22 21 19 18 18 18 18 19 19 20 20 20 20 21 21 22 22
111 114 117 120 123 125 127 130 131 133 134 134 135 136 137 138 139 140 140 139 138 138 136 133 129 124 121 117 114 111 108 104 100 95 90 87 87 89 89 86 81 75 71 67 64 61 57 51 47 46 46 44 42 39 37 36 35 34 32 31 31 31 30 28 27 25 24 23 22 21 20 19 17 17 17 17 17 18 18 19 19 19 19 19 20 20
112 115 118 121 124 127 129 130 131 132 134 135 136 138 138 139 140 142 143 143 142 140 137 133 129 125 121 118 115 112 109 106 103 98 94 90 89 90 90 86 82 77 73 68 64 61 57 52 48 45 44 43 42 40 37 36 35 33 32 31 31 31 30 28 26 24 22 21 20 19 19 18 17 16 16 16 17 17 17 17 17 17 17 17 17 18
112 115 119 123 126 129 131 133 133 134 135 136 138 140 141 142 144 145 145 145 143 141 137 134 131 126 122 118 115 112 108 105 103 99 95 92 91 92 91 87 82 78 74 70 65 61 58 53 49 47 45 43 42 40 37 36 35 33 32 32 31 31 30 28 26 24 22 20 19 18 17 17 16 15 15 15 15 15 15 15 15 15 15 15 15 15
114 117 120 124 128 131 134 136 138 139 139 140 141 142 144 146 147 147 147 145 144 142 139 135 131 128 123 119 115 112 108 105 103 99 94 91 91 91 91 87 82 77 73 68 65 61 57 53 49 47 45 43 42 40 37 36 34 33 32 32 32 31 30 28 26 24 22 21 20 18 17 16 15 14 13 13 13 13 13 13 13 13 13 13 13 13
115 118 121 125 129 132 135 139 141 142 142 143 144 145 145 146 146 147 146 146 145 143 140 136 132 129 124 120 116 112 109 105 102 98 93 90 89 90 89 86 80 75 71 67 63 60 57 52 49 46 45 43 41 39 37 35 34 33 32 31 31 31 30 28 26 24 23 21 20 18 17 15 14 12 11 11 11 11 11 12 12 12 12 12 11 11
115 118 121 124 128 131 135 138 140 141 142 143 144 145 146 146 146 146 146 146 146 145 142 138 134 130 126 121 117 113 109 105 102 99 94 90 89 90 89 85 79 75 71 66 63 61 56 52 49 46 44 43 41 39 38 36 34 32 32 31 30 30 29 28 26 24 22 21 20 18 16 14 12 10 9 8 8 9 10 10 11 11 10 10 10 10
114 117 120 123 125 128 131 135 139 142 142 142 143 144 145 145 146 146 147 147 146 145 143 140 135 131 127 123 119 114 110 106 102 100 96 92 90 90 89 84 79 75 70 65 62 59 56 52 49 46 44 42 40 38 37 36 34 33 31 30 30 29 28 26 25 23 22 20 19 17 15 13 11 8 7 7 7 8 9 9 9 9 9 8 9 9
113 116 118 121 123 126 129 133 138 142 144 144 144 144 144 145 146 146 147 147 146 145 143 141 136 132 127 123 119 115 111 107 104 101 97 93 91 90 89 84 79 75 70 65 60 57 54 51 49 47 44 42 39 37 37 35 34 33 32 31 30 29 28 26 25 23 21 19 17 15 14 11 9 8 7 7 7 8 8 8 8 8 8 8 8 8
112 115 117 120 123 126 129 131 135 139 143 145 145 145 145 145 146 147 147 147 145 144 142 140 137 133 128 123 119 115 111 108 106 103 98 94 91 92 90 85 80 75 70 65 60 56 53 51 49 46 44 41 38 36 35 34 33 32 31 30 30 29 28 27 25 22 20 19 16 14 12 10 9 8 8 8 8 7 7 7 6 6 7 6 7 7
112 113 116 119 122 125 128 131 134 137 141 144 145 146 146 147 147 147 147 147 146 145 142 139 136 133 129 125 120 116 112 108 106 104 100 95 92 91 90 86 81 76 71 66 61 56 52 50 48 46 43 40 37 35 34 33 32 31 30 29 30 29 28 27 25 23 20 18 15 12 10 9 9 10 9 9 8 7 6 5 5 5 5 5 6 6
111 112 116 119 123 126 130 135 138 141 144 146 147 147 148 148 148 149 149 148 147 146 144 141 137 133 130 126 122 117 113 109 106 103 101 96 92 91 89 85 80 75 70 66 61 56 52 50 48 46 44 41 37 35 34 33 32 31 30 29 29 29 28 26 25 22 20 17 14 11 10 9 10 10 10 8 7 6 5 4 4 4 4 5 5 5
112 114 117 121 125 129 133 136 140 143 147 149 150 150 149 149 150 150 150 150 149 148 147 144 140 135 130 127 123 119 114 110 107 104 100 96 92 90 89 86 81 75 70 65 62 57 53 51 49 47 45 41 38 36 35 33 32 31 30 29 29 28 27 26 24 22 20 17 14 11 10 9 10 10 9 8 7 6 5 4 4 4 4 4 3 4
Wind_Direction
320 319 318 318 317 317 318 318 318 318 318 318 317 316 315 315 314 313 313 313 312 312 312 311 311 309 308 307 305 304 304 303 302 300 300 301 301 300 299 297 296 295 294 294 293 292 292 292 291 291 289 288 287 286 285 283 282 280 278 276 274 272 270 269 267 266 265 264 264 263 262 261 260 260 259 257 256 255 254 254 253 253 253 252 252 251
323 323 323 323 323 323 323 323 323 323 323 322 321 321 320 320 320 318 318 317 315 315 314 312 311 308 306 306 304 304 304 304 303 301 302 303 302 301 299 298 296 295 294 294 293 293 292 292 291 291 290 289 288 286 286 285 284 282 281 279 277 275 273 271 269 267 265 264 263 262 261 260 259 259 258 258 257 256 255 254 253 253 253 252 251 251
329 329 329 330 331 331 331 330 330 330 329 328 327 326 325 324 325 322 319 319 317 317 316 313 312 309 307 308 307 307 307 307 305 304 305 304 302 300 299 297 296 295 294 294 294 293 292 292 292 291 290 289 288 287 286 285 284 283 283 282 280 278 277 275 273 271 268 266 264 263 261 260 259 258 258 257 257 256 255 254 254 253 253 252 251 250
337 339 340 341 341 340 340 339 339 338 337 336 333 331 330 328 328 326 323 322 320 319 320 318 318 315 312 312 311 311 310 308 307 306 306 305 302 300 299 297 297 296 296 295 294 294 293 293 292 291 290 289 288 287 287 286 286 285 284 284 283 282 281 279 278 276 273 271 268 265 263 261 259 258 257 257 256 256 255 255 254 253 252 252 252 251
349 350 350 351 350 348 348 346 345 343 341 340 338 336 335 333 332 331 329 329 326 324 323 322 321 318 315 314 313 312 311 308 307 308 307 305 303 302 301 301 300 299 298 297 295 294 294 293 291 290 289 288 288 287 287 286 285 285 284 284 283 283 282 281 280 279 277 275 273 270 267 265 262 260 258 256 256 255 255 254 254 253 252 251 251 251
358 356 356 355 354 353 351 350 349 347 345 344 343 340 339 338 336 334 333 333 331 327 323 321 322 320 317 315 314 313 310 308 309 309 308 307 306 305 304 303 302 301 299 297 296 294 293 291 290 288 288 287 287 287 286 286 285 285 284 284 283 282 281 281 280 279 278 276 275 273 271 269 266 263 261 258 256 255 254 253 253 253 252 251 250 250
1 359 358 357 357 356 354 353 352 351 349 347 346 344 342 341 339 337 335 334 333 328 323 322 322 322 321 317 315 313 311 312 314 313 312 310 309 307 305 304 303 301 299 298 296 295 294 292 290 289 289 289 289 288 288 287 287 286 286 285 284 283 281 280 279 278 277 276 275 273 271 270 267 265 263 261 259 256 255 254 253 253 252 252 251 250
2 0 359 358 358 357 356 355 354 352 350 349 347 345 344 343 341 339 336 334 333 329 325 324 323 324 324 319 316 316 315 318 319 316 314 312 310 308 306 305 303 302 301 300 299 298 297 295 293 292 291 291 290 290 289 288 287 286 286 285 284 283 282 281 280 279 278 277 276 275 273 271 269 267 265 263 261 259 256 254 254 253 253 252 252 251
2 1 360 359 358 357 356 355 354 353 351 349 348 347 345 344 342 340 338 336 334 330 327 325 324 325 326 322 319 319 320 322 320 317 315 313 311 310 309 308 307 306 305 304 303 301 299 297 295 293 292 291 290 289 288 288 287 286 285 284 284 283 283 283 282 281 280 280 278 277 276 274 272 270 267 264 263 262 259 256 254 253 253 253 252 251
2 1 360 359 357 356 355 354 353 352 351 349 348 348 346 345 344 342 339 338 336 332 329 327 325 326 328 325 321 321 324 324 320 318 317 316 314 314 312 311 310 310 308 306 305 302 300 298 296 295 294 294 293 292 291 290 289 288 286 285 284 283 283 283 283 283 282 281 280 279 277 275 274 272 269 266 264 263 262 259 257 254 252 252 252 252
2 0 359 358 357 355 354 353 352 352 350 348 347 348 347 345 345 343 340 339 337 334 331 328 327 328 328 326 323 325 327 325 321 321 320 319 317 316 315 314 313 312 310 308 306 305 303 302 301 300 298 298 296 295 294 292 291 290 289 287 285 284 284 284 284 284 283 282 280 279 277 276 273 272 270 268 266 263 262 260 258 256 253 251 250 250
1 360 358 358 356 355 354 352 351 351 350 348 346 346 347 346 346 344 341 339 338 336 333 330 330 329 328 325 324 328 329 325 323 323 322 320 319 318 317 316 314 313 311 310 309 307 306 305 304 303 301 300 299 298 296 294 292 292 291 289 287 286 285 285 285 285 284 282 281 279 278 276 274 271 269 268 266 264 262 260 258 257 255 253 251 249
360 360 358 357 356 355 354 352 351 350 350 348 346 345 345 346 346 345 342 341 341 340 336 333 331 331 329 325 326 330 330 326 325 325 323 322 320 319 318 317 316 316 314 313 311 310 309 308 306 305 304 303 302 300 297 295 294 293 292 291 290 289 288 288 287 285 283 282 281 280 278 277 275 272 269 267 265 263 262 260 258 257 256 254 252 250
358 359 357 356 355 354 353 352 351 351 350 349 347 345 345 345 346 346 343 342 344 344 340 335 333 333 330 326 329 332 331 328 327 327 325 323 321 320 320 320 320 318 316 315 314 312 311 309 308 307 306 305 304 302 299 297 297 295 294 293 293 292 291 290 288 286 284 283 281 280 279 277 275 273 270 267 264 263 261 260 259 257 256 254 253 251
357 358 357 355 355 354 354 352 351 351 351 350 348 346 346 345 345 346 344 343 345 346 343 338 336 335 331 329 332 334 331 330 329 328 327 325 324 323 323 322 320 318 317 316 314 313 312 310 309 308 307 306 304 302 300 299 297 296 295 295 295 294 293 291 289 286 285 283 282 280 279 278 276 274 271 268 265 263 261 259 258 257 256 255 254 252
357 357 357 356 355 355 354 353 352 352 352 351 349 347 347 346 345 346 345 344 344 346 345 341 338 336 332 332 335 334 332 331 330 329 328 327 326 324 323 322 320 319 317 316 315 314 312 311 310 309 308 307 305 303 301 300 297 296 296 296 297 297 294 292 290 288 286 284 283 281 279 278 276 274 272 269 266 264 261 259 258 257 256 255 254 253
358 357 357 357 356 355 355 353 353 353 353 352 351 349 348 346 346 346 345 345 344 345 345 342 341 338 332 333 336 334 332 331 331 331 329 327 326 324 324 323 321 320 318 316 315 314 312 311 310 310 309 308 307 305 303 301 299 298 299 299 299 297 295 293 290 289 287 286 284 282 281 279 276 274 272 270 267 265 263 260 258 257 256 255 254 253
360 358 357 357 357 356 355 355 354 354 354 354 352 350 348 347 347 346 345 345 345 345 346 344 343 339 334 335 337 335 333 333 332 331 329 328 327 327 326 324 322 320 319 318 317 316 315 314 313 312 312 311 309 307 306 304 302 302 302 301 299 296 294 292 290 289 287 286 285 284 282 280 278 275 272 269 267 265 263 261 259 257 256 254 253 252
1 1 358 357 357 357 356 356 355 355 355 354 353 351 349 348 348 347 345 346 346 346 346 347 346 340 335 337 338 336 335 334 333 332 331 331 330 329 327 324 323 321 320 319 318 317 316 315 314 313 313 312 310 308 306 305 304 304 304 303 300 297 294 292 291 289 288 286 285 284 282 280 278 275 273 269 266 264 262 261 260 258 255 254 252 251
0 1 1 359 358 358 357 357 356 355 355 355 353 352 351 349 349 348 347 347 347 346 345 349 349 341 337 339 339 337 336 334 333 334 334 334 332 330 328 325 324 323 321 320 319 318 318 316 315 313 313 312 310 308 306 305 305 305 305 304 301 298 295 292 291 290 289 287 285 283 281 278 276 274 272 270 267 264 262 259 258 257 255 254 252 250
1 2 2 1 359 359 358 358 357 356 356 355 354 353 352 350 349 349 349 349 348 346 345 348 350 343 338 340 340 338 337 336 335 335 335 334 332 330 328 326 325 324 323 323 321 320 319 317 315 313 313 312 311 309 307 306 307 307 307 306 302 299 296 294 292 291 290 288 286 283 280 277 274 271 270 269 267 265 263 260 257 255 254 253 251 250
3 2 3 2 1 0 360 359 358 357 356 356 355 354 353 351 350 349 350 351 350 347 344 347 350 345 340 341 340 338 338 337 335 334 334 333 332 330 328 327 326 325 325 324 323 321 319 317 315 313 313 312 311 309 309 308 308 309 309 307 303 300 297 295 294 292 290 288 286 283 280 276 273 269 267 265 264 264 262 261 258 256 254 252 251 250
3 2 3 3 2 1 0 360 358 357 357 356 356 355 354 352 351 350 350 352 351 348 345 346 349 346 342 342 341 339 338 337 335 333 333 333 332 331 329 328 327 326 325 324 323 321 320 318 316 315 314 313 312 311 310 310 310 311 310 308 304 300 298 296 295 293 291 288 286 283 280 277 273 269 265 263 261 261 260 260 259 258 256 253 252 250
4 2 2 4 4 2 1 0 359 358 357 357 356 355 355 353 352 351 350 351 352 349 345 346 349 348 344 343 342 339 338 337 335 334 334 334 333 331 330 329 327 326 324 324 324 323 321 319 317 316 315 314 312 312 311 311 311 311 310 308 304 301 299 297 296 294 292 289 287 285 282 279 275 270 265 262 260 259 258 258 257 257 256 255 254 252
6 3 2 3 3 3 1 0 0 359 358 358 357 356 356 355 353 352 351 351 352 351 347 345 349 349 346 344 343 340 338 337 336 335 335 335 334 333 331 329 327 325 325 325 325 324 322 319 317 316 316 314 313 313 313 312 312 312 311 308 305 302 300 299 298 296 293 291 289 287 284 281 277 273 268 263 260 258 257 257 257 256 256 255 254 253
8 5 3 2 3 3 2 1 1 360 359 358 358 357 357 356 354 352 352 352 352 352 349 346 347 349 348 346 343 340 339 338 337 337 337 336 335 333 332 330 328 327 327 327 326 325 323 320 318 317 317 315 315 315 315 314 313 313 311 309 307 304 303 302 300 298 295 293 291 289 286 282 279 275 271 267 262 259 256 256 256 256 256 255 254 253
9 8 5 4 4 3 2 2 1 0 359 359 359 358 357 356 355 353 352 353 352 352 351 348 347 349 348 347 344 342 341 340 338 338 338 337 336 334 332 331 330 329 328 328 327 327 324 321 319 318 317 316 316 317 317 316 315 314 312 310 308 306 305 304 302 300 297 295 293 290 286 283 279 276 273 269 265 261 258 256 255 256 256 256 255 255
10 10 7 5 4 4 3 2 2 1 0 360 359 359 358 357 356 354 353 353 352 351 352 351 349 348 348 348 346 344 343 342 340 340 340 338 337 335 334 332 331 330 329 328 328 327 325 322 320 319 318 317 317 318 317 316 315 314 312 311 309 307 305 304 303 301 298 297 294 291 288 284 281 277 274 270 267 263 260 258 256 255 256 256 256 256
11 11 9 7 5 5 4 3 3 2 1 0 360 359 359 358 357 355 354 354 353 351 351 351 351 350 349 349 349 347 345 343 341 341 341 340 338 337 335 333 332 330 329 329 328 327 324 322 320 319 317 316 317 317 317 316 315 314 311 310 309 308 306 304 303 301 299 298 296 293 290 287 283 279 275 272 268 265 261 259 257 256 256 256 256 256
12 11 10 8 6 6 5 4 3 2 1 1 0 360 360 359 357 355 354 354 354 353 352 352 353 352 351 351 350 348 346 344 342 342 342 341 339 337 335 334 332 331 330 329 329 327 324 322 320 319 317 316 317 318 317 316 315 313 311 309 308 307 305 303 302 301 300 299 298 296 294 291 287 282 278 273 269 266 263 260 257 256 255 255 255 255
12 11 10 9 7 6 5 4 3 3 2 1 1 0 360 359 358 355 354 355 354 354 354 354 354 354 353 352 350 349 347 345 343 343 343 341 339 337 335 334 333 332 331 330 329 327 325 323 321 319 318 318 318 318 318 317 315 313 311 309 308 307 304 303 301 301 301 301 301 300 298 295 291 285 280 275 271 267 264 261 259 256 254 253 253 253
11 10 9 8 7 6 5 4 3 3 2 1 0 0 360 360 359 356 355 355 355 355 356 355 355 354 353 352 351 350 348 346 344 344 344 341 339 337 336 336 334 333 332 331 330 328 327 325 322 320 319 319 319 318 318 317 315 313 311 309 308 307 305 304 303 303 303 302 302 302 300 298 293 287 282 277 273 269 265 262 259 257 256 255 254 254
10 9 8 8 7 6 5 5 3 2 1 1 0 360 360 359 359 358 356 356 357 356 356 356 355 354 354 353 352 351 349 347 345 345 344 342 340 339 339 337 336 335 334 333 331 330 330 327 323 320 319 319 319 319 318 317 315 313 311 310 308 307 306 305 305 305 304 303 302 300 298 296 293 288 283 278 273 270 267 263 261 259 258 257 257 256
10 9 8 7 6 5 5 5 3 2 1 1 0 360 359 359 360 359 357 357 358 358 357 356 355 355 354 353 353 352 351 348 346 346 345 343 342 341 341 339 337 336 335 334 333 332 332 329 324 321 320 321 320 320 319 317 315 314 312 310 310 309 308 307 306 305 303 301 299 296 294 292 290 287 283 278 274 270 268 266 265 263 262 260 259 256
10 9 8 7 6 5 4 4 4 2 2 1 0 360 359 359 360 0 359 358 358 358 357 357 356 356 355 354 354 353 352 350 347 347 346 344 343 342 341 340 338 337 336 335 334 334 334 332 326 323 322 323 323 322 321 319 317 315 313 312 311 311 310 309 308 305 302 298 295 293 291 289 287 284 280 276 273 271 270 270 269 269 267 264 262 259
9 9 8 7 6 6 5 4 4 3 2 1 0 360 359 359 360 0 0 359 359 358 358 358 358 357 356 355 354 353 353 350 348 347 346 345 343 342 341 340 339 339 338 337 336 336 336 333 328 325 324 325 325 324 323 321 319 317 315 314 314 313 312 310 309 307 305 301 297 294 291 289 285 282 277 273 271 271 272 272 271 270 267 266 264 263
10 9 8 8 7 6 5 5 4 3 2 1 0 0 360 -0 0 1 1 360 359 358 358 358 359 358 357 355 354 353 352 351 349 348 347 345 343 343 343 342 341 341 341 339 338 338 338 335 331 328 327 328 328 327 324 323 321 319 318 318 318 316 314 314 313 311 309 305 301 298 295 292 288 282 277 273 272 272 272 271 270 269 267 266 266 264
10 10 9 8 7 6 5 4 4 3 2 1 1 1 0 0 1 1 1 0 359 359 359 359 359 358 357 355 354 352 352 351 351 350 348 346 345 345 345 344 343 343 342 340 339 339 339 337 333 330 330 331 330 329 327 325 323 321 322 323 321 319 318 319 318 315 312 308 304 301 297 294 290 285 280 276 274 273 272 271 270 268 266 264 263 262
10 10 9 9 8 7 6 5 4 3 3 2 2 1 1 1 1 0 1 1 0 360 359 359 359 358 357 356 354 352 351 352 352 351 350 348 347 346 346 346 345 344 343 341 340 340 340 339 335 333 332 332 332 331 330 328 326 325 326 325 323 321 322 323 322 318 314 310 307 304 300 297 293 287 283 280 277 274 272 270 267 266 264 262 261 260
10 10 9 9 8 7 6 6 5 4 3 3 2 1 1 1 0 0 0 1 1 0 360 359 359 359 358 356 354 353 352 352 352 352 351 350 349 348 347 346 346 345 344 342 342 341 340 340 338 335 334 334 334 334 332 330 328 327 328 327 324 324 326 326 323 320 316 312 308 306 303 299 296 292 286 282 278 275 271 269 267 265 263 263 263 262
10 10 9 9 8 8 7 6 6 4 3 3 2 2 1 1 1 1 1 1 1 1 360 359 359 359 358 357 355 354 353 352 352 352 352 351 350 349 348 347 347 346 345 344 343 341 340 340 339 337 337 336 335 335 334 332 330 330 330 328 327 328 329 327 324 321 318 315 312 309 306 303 300 296 290 285 281 277 274 271 268 266 266 266 266 266
10 10 9 9 8 8 7 6 6 5 4 3 3 2 1 1 2 2 1 1 1 1 0 359 359 359 358 358 356 355 354 353 353 353 352 351 350 349 348 348 348 347 346 344 343 342 341 341 341 339 339 339 337 336 335 334 332 332 332 330 330 331 330 328 326 323 322 321 319 316 311 308 304 298 292 287 282 278 275 273 271 271 271 271 270 269
10 10 10 9 9 8 7 6 6 6 5 4 3 3 3 2 2 2 1 1 1 0 0 360 359 359 359 358 356 355 355 354 353 353 353 351 350 350 349 349 349 348 346 345 343 342 342 342 342 341 340 340 339 337 336 335 334 334 333 332 332 332 331 330 329 327 327 327 325 321 318 314 307 299 292 287 282 280 278 278 278 278 277 276 275 273
10 10 10 10 9 8 8 7 6 6 5 5 4 4 4 3 2 2 1 1 1 0 -0 360 360 359 359 358 357 356 355 355 354 353 353 352 351 350 350 350 349 348 347 346 344 342 343 343 343 342 342 341 340 338 337 337 336 335 335 335 335 334 333 332 332 331 331 330 329 326 322 317 309 301 294 290 286 284 284 283 283 283 282 281 277 273
10 10 10 10 9 9 8 7 6 6 6 5 5 4 4 3 2 2 1 1 1 0 360 360 360 359 359 358 358 356 356 355 354 354 354 353 352 352 351 351 350 349 349 348 345 343 344 344 344 344 343 342 341 339 337 338 338 336 336 338 337 336 335 334 333 333 333 333 331 328 324 318 310 305 301 297 294 292 290 288 287 287 285 283 280 277
9 9 9 9 9 9 9 8 7 6 6 6 5 5 4 3 2 2 2 2 1 0 360 360 -0 360 359 359 358 357 356 356 355 355 354 354 353 352 352 352 351 350 350 349 347 345 344 345 345 345 344 344 343 340 338 338 338 338 339 340 340 338 337 336 336 336 336 335 333 330 326 319 314 314 314 311 306 301 297 294 291 291 290 289 287 284
8 9 9 9 8 9 9 9 7 6 6 6 5 5 4 3 3 2 2 2 1 1 0 360 360 0 360 359 358 357 356 356 356 356 355 354 353 353 353 353 352 352 351 350 349 347 346 345 345 345 345 345 344 341 340 339 339 339 341 342 342 341 340 339 338 339 340 338 335 332 328 324 324 329 329 324 318 311 304 300 297 297 297 295 290 286
7 8 8 8 8 8 8 9 8 7 6 6 5 5 4 4 3 3 2 2 1 1 1 0 0 0 360 359 359 358 357 356 356 356 356 355 354 354 354 353 353 353 352 351 351 350 348 347 346 346 346 346 345 343 341 340 340 341 342 343 343 343 342 341 341 343 343 341 336 334 333 334 339 342 339 333 327 317 310 306 304 304 301 297 292 288
6 6 7 8 8 8 8 8 8 8 7 6 5 5 4 4 3 3 2 2 1 1 1 1 1 1 0 359 359 359 358 357 357 357 356 356 355 354 354 353 353 354 353 352 352 352 350 348 348 347 347 348 347 344 343 343 342 343 345 346 346 345 343 342 343 345 346 342 339 339 342 346 350 348 344 339 331 322 314 308 306 306 304 302 298 287
5 6 6 7 7 8 8 8 8 8 7 7 6 5 5 4 3 3 2 2 2 2 1 1 2 2 1 0 359 359 359 358 357 357 357 356 355 355 355 354 354 355 354 352 352 353 352 351 350 349 350 350 349 347 346 345 345 346 348 349 349 346 344 344 346 347 347 344 342 344 347 353 356 352 346 339 329 320 311 307 313 319 312 304 291 271
4 5 6 7 8 8 8 8 8 8 8 7 6 5 5 4 4 3 2 2 2 2 2 2 2 2 2 1 360 360 359 358 358 358 358 357 356 356 355 354 354 356 355 353 354 355 354 353 352 351 352 352 350 349 348 348 348 349 351 352 351 348 347 347 348 349 348 345 344 346 350 356 359 355 346 339 331 322 316 324 336 332 315 300 272 247
Height
10586 10582 10577 10571 10566 10561 10555 10549 10543 10538 10532 10527 10521 10515 10510 10505 10496 10488 10485 10480 10475 10472 10461 10452 10447 10437 10432 10427 10416 10410 10404 10397 10390 10382 10377 10372 10365 10359 10352 10344 10336 10328 10321 10313 10307 10299 10293 10288 10282 10277 10272 10266 10260 10254 10248 10244 10241 10238 10235 10232 10230 10226 10223 10221 10220 10219 10218 10216 10215 10217 10218 10219 10219 10219 10218 10221 10224 10224 10225 10225 10225 10227 10231 10235 10239 10243
10583 10578 10573 10567 10562 10557 10551 10546 10540 10534 10528 10522 10516 10510 10504 10499 10493 10482 10476 10473 10466 10465 10459 10448 10442 10432 10424 10421 10411 10402 10396 10389 10381 10372 10366 10362 10354 10346 10339 10331 10323 10315 10308 10300 10292 10285 10278 10272 10266 10260 10254 10248 10242 10237 10232 10227 10223 10219 10215 10211 10210 10207 10204 10201 10199 10199 10199 10198 10196 10196 10199 10200 10200 10200 10199 10201 10203 10205 10205 10206 10206 10207 10210 10215 10219 10223
10579 10574 10569 10564 10559 10553 10548 10542 10537 10531 10525 10519 10511 10505 10499 10493 10490 10481 10471 10465 10457 10454 10453 10446 10438 10427 10416 10412 10405 10394 10386 10378 10370 10362 10357 10351 10343 10334 10326 10318 10311 10303 10296 10288 10280 10272 10265 10258 10251 10244 10237 10230 10224 10219 10214 10210 10206 10201 10197 10193 10190 10187 10184 10182 10180 10178 10179 10179 10178 10176 10178 10181 10181 10181 10182 10182 10185 10186 10186 10187 10188 10189 10191 10194 10198 10202
10577 10572 10566 10561 10555 10549 10544 10538 10531 10526 10519 10513 10506 10499 10494 10486 10482 10479 10472 10463 10451 10442 10441 10438 10432 10419 10406 10401 10396 10386 10377 10369 10360 10353 10347 10340 10331 10322 10314 10305 10298 10291 10283 10276 10267 10259 10252 10244 10237 10228 10220 10214 10208 10202 10198 10193 10188 10184 10180 10175 10171 10167 10165 10162 10159 10158 10158 10158 10159 10157 10158 10161 10162 10164 10165 10165 10167 10167 10166 10167 10169 10171 10172 10172 10175 10180
10574 10568 10563 10558 10552 10545 10539 10533 10526 10519 10512 10507 10501 10493 10488 10481 10473 10468 10464 10459 10448 10433 10425 10424 10423 10414 10398 10390 10386 10377 10368 10359 10351 10344 10337 10329 10320 10310 10300 10292 10284 10277 10269 10261 10254 10246 10239 10231 10223 10214 10206 10199 10193 10188 10184 10179 10173 10169 10165 10160 10154 10150 10147 10144 10140 10138 10137 10137 10138 10138 10138 10140 10143 10146 10148 10148 10149 10149 10148 10148 10148 10150 10151 10152 10154 10157
10571 10565 10560 10554 10549 10542 10536 10529 10523 10516 10508 10501 10495 10487 10480 10474 10466 10458 10451 10447 10441 10429 10417 10412 10412 10408 10395 10382 10375 10368 10359 10351 10343 10336 10327 10317 10307 10297 10287 10279 10271 10263 10255 10247 10240 10233 10226 10218 10210 10201 10193 10187 10180 10175 10169 10164 10158 10154 10151 10146 10140 10135 10131 10128 10124 10121 10119 10118 10119 10118 10118 10121 10123 10125 10127 10128 10129 10129 10128 10128 10128 10129 10131 10133 10135 10138
10568 10562 10557 10551 10545 10539 10532 10525 10518 10511 10504 10496 10489 10482 10474 10467 10459 10451 10443 10436 10431 10422 10411 10403 10398 10397 10390 10375 10365 10357 10348 10342 10334 10324 10315 10305 10295 10285 10276 10267 10259 10251 10243 10234 10227 10219 10211 10203 10195 10187 10181 10174 10166 10161 10155 10148 10143 10140 10136 10131 10124 10118 10115 10112 10108 10105 10102 10101 10101 10101 10100 10102 10105 10106 10108 10107 10107 10109 10110 10109 10110 10111 10112 10114 10118 10121
10565 10559 10553 10547 10540 10534 10527 10520 10514 10507 10500 10492 10485 10477 10469 10462 10454 10446 10438 10429 10423 10413 10402 10393 10386 10386 10382 10366 10353 10345 10336 10330 10322 10311 10302 10293 10283 10274 10264 10255 10246 10237 10228 10219 10212 10204 10195 10187 10179 10173 10168 10162 10154 10147 10140 10134 10129 10126 10121 10115 10108 10101 10096 10094 10091 10089 10087 10085 10085 10085 10084 10085 10087 10089 10090 10089 10087 10089 10091 10091 10092 10094 10095 10097 10100 10103
10562 10555 10548 10541 10535 10529 10523 10517 10510 10504 10496 10489 10483 10475 10466 10459 10451 10443 10434 10425 10416 10406 10395 10385 10375 10373 10374 10360 10342 10333 10325 10318 10310 10300 10291 10282 10271 10261 10250 10240 10230 10221 10212 10203 10196 10189 10182 10173 10166 10160 10154 10149 10142 10134 10126 10119 10114 10111 10107 10101 10094 10086 10079 10076 10074 10072 10071 10069 10068 10069 10068 10069 10070 10070 10072 10072 10071 10070 10071 10073 10076 10077 10079 10081 10081 10084
10556 10550 10544 10537 10531 10524 10518 10512 10506 10499 10492 10485 10479 10472 10463 10454 10446 10437 10429 10420 10411 10400 10388 10377 10365 10359 10360 10353 10336 10325 10318 10308 10298 10288 10278 10266 10254 10243 10233 10224 10215 10206 10197 10189 10182 10174 10167 10160 10152 10146 10140 10135 10128 10120 10113 10105 10099 10095 10092 10087 10081 10073 10066 10061 10059 10057 10056 10054 10053 10052 10052 10054 10055 10053 10054 10055 10055 10054 10054 10056 10059 10060 10061 10064 10065 10067
10553 10547 10541 10535 10528 10521 10514 10507 10501 10494 10487 10480 10473 10469 10462 10452 10444 10434 10424 10416 10407 10397 10385 10371 10359 10347 10340 10336 10326 10317 10310 10299 10286 10275 10264 10252 10240 10229 10219 10209 10200 10191 10183 10175 10167 10160 10151 10144 10137 10130 10125 10119 10113 10106 10099 10091 10084 10080 10077 10073 10067 10061 10053 10049 10047 10045 10042 10040 10038 10037 10037 10038 10039 10038 10038 10039 10040 10039 10038 10040 10041 10042 10044 10047 10050 10053
10551 10545 10538 10531 10524 10517 10510 10502 10495 10488 10481 10473 10465 10461 10458 10451 10443 10433 10423 10413 10403 10393 10381 10367 10357 10345 10330 10319 10312 10307 10300 10288 10276 10266 10254 10242 10230 10218 10208 10198 10188 10178 10168 10159 10152 10144 10136 10129 10123 10116 10111 10106 10101 10094 10086 10077 10071 10066 10062 10058 10053 10048 10041 10037 10035 10032 10029 10026 10024 10023 10023 10023 10024 10024 10024 10024 10024 10023 10023 10024 10025 10026 10028 10031 10034 10038
10546 10540 10533 10527 10521 10514 10507 10499 10491 10483 10475 10467 10458 10450 10445 10442 10438 10430 10420 10412 10401 10387 10372 10359 10350 10343 10329 10312 10302 10297 10288 10276 10265 10255 10243 10230 10218 10207 10197 10187 10176 10164 10153 10144 10136 10129 10121 10114 10108 10102 10097 10093 10088 10082 10074 10066 10059 10054 10049 10044 10039 10035 10029 10026 10023 10019 10016 10013 10011 10010 10010 10010 10010 10010 10010 10010 10009 10009 10009 10010 10012 10013 10014 10016 10019 10022
10543 10538 10531 10524 10518 10511 10504 10496 10487 10479 10470 10461 10451 10441 10432 10425 10421 10416 10407 10400 10395 10384 10367 10349 10337 10330 10319 10304 10293 10287 10277 10264 10253 10242 10231 10219 10206 10195 10183 10172 10161 10151 10140 10131 10123 10116 10109 10102 10096 10089 10083 10079 10074 10067 10060 10054 10048 10042 10037 10031 10027 10023 10018 10014 10011 10006 10003 10001 9999 9998 9998 9998 9998 9997 9997 9997 9996 9996 9997 9997 9999 10000 10001 10002 10004 10007
10540 10535 10529 10521 10514 10506 10498 10490 10481 10473 10465 10455 10445 10433 10423 10413 10405 10399 10390 10380 10378 10375 10363 10345 10329 10316 10304 10291 10281 10273 10264 10252 10242 10232 10221 10208 10194 10182 10172 10162 10151 10142 10131 10121 10113 10105 10098 10091 10085 10078 10073 10068 10062 10055 10048 10042 10036 10031 10026 10021 10016 10012 10007 10002 9998 9995 9992 9990 9988 9987 9987 9986 9986 9986 9985 9985 9985 9984 9985 9985 9986 9987 9989 9990 9992 9995
10536 10530 10524 10517 10509 10501 10493 10485 10476 10468 10458 10449 10438 10426 10417 10407 10397 10391 10382 10370 10362 10359 10351 10337 10323 10308 10291 10282 10272 10260 10251 10241 10231 10222 10209 10196 10185 10174 10164 10154 10143 10132 10123 10113 10105 10097 10088 10082 10075 10069 10063 10056 10050 10044 10037 10031 10025 10020 10016 10011 10007 10001 9996 9991 9987 9983 9981 9979 9978 9978 9977 9976 9976 9975 9974 9973 9974 9973 9973 9974 9975 9976 9978 9979 9981 9983
10534 10526 10520 10513 10505 10497 10489 10480 10471 10463 10453 10443 10432 10421 10412 10402 10391 10382 10377 10368 10356 10349 10339 10324 10311 10298 10282 10275 10269 10255 10243 10234 10223 10212 10201 10189 10179 10167 10155 10145 10134 10123 10114 10105 10096 10087 10078 10071 10065 10059 10053 10045 10037 10031 10026 10019 10012 10008 10006 10002 9998 9991 9985 9981 9978 9974 9971 9969 9968 9968 9967 9966 9965 9965 9965 9963 9963 9963 9963 9963 9964 9965 9967 9969 9971 9972
10534 10524 10516 10510 10503 10494 10486 10477 10468 10458 10448 10439 10428 10417 10406 10396 10385 10371 10362 10357 10349 10342 10334 10317 10299 10283 10267 10258 10253 10242 10230 10220 10211 10203 10193 10181 10168 10156 10146 10136 10126 10116 10105 10095 10086 10076 10066 10057 10051 10047 10042 10035 10026 10019 10014 10008 10001 9997 9995 9992 9988 9983 9976 9971 9968 9965 9963 9961 9959 9959 9958 9956 9955 9955 9955 9954 9953 9953 9952 9953 9954 9955 9957 9958 9960 9962
10532 10524 10515 10506 10500 10491 10481 10472 10462 10453 10443 10434 10423 10411 10398 10387 10379 10366 10351 10340 10332 10324 10320 10312 10293 10270 10254 10245 10235 10224 10212 10201 10194 10187 10177 10165 10153 10142 10134 10126 10117 10108 10098 10088 10078 10067 10057 10047 10039 10033 10029 10025 10017 10009 10003 9997 9991 9987 9985 9982 9978 9973 9967 9962 9960 9957 9955 9953 9951 9951 9950 9948 9946 9944 9944 9944 9944 9943 9943 9943 9944 9945 9947 9948 9950 9952
10528 10521 10512 10502 10493 10486 10477 10467 10457 10447 10438 10428 10417 10406 10393 10380 10371 10362 10348 10331 10317 10307 10301 10300 10288 10260 10241 10235 10223 10210 10199 10186 10176 10169 10159 10149 10138 10128 10119 10110 10104 10097 10088 10079 10070 10060 10050 10040 10031 10023 10018 10013 10007 10000 9993 9988 9983 9979 9976 9973 9968 9963 9959 9954 9952 9949 9946 9945 9944 9943 9941 9940 9938 9936 9934 9934 9934 9934 9934 9935 9935 9936 9937 9939 9941 9942
10524 10517 10509 10499 10489 10479 10470 10461 10451 10440 10431 10421 10410 10398 10387 10374 10362 10354 10345 10330 10313 10299 10289 10287 10281 10256 10232 10223 10212 10198 10188 10174 10161 10154 10148 10140 10130 10120 10109 10098 10091 10084 10077 10069 10059 10050 10041 10032 10024 10016 10009 10003 9997 9990 9983 9978 9975 9971 9967 9964 9959 9954 9950 9946 9944 9942 9939 9937 9936 9935 9933 9932 9931 9929 9927 9926 9925 9924 9925 9926 9927 9927 9928 9929 9931 9933
10522 10514 10507 10498 10487 10477 10467 10456 10446 10436 10425 10414 10403 10392 10379 10367 10354 10343 10336 10327 10311 10294 10280 10274 10271 10254 10231 10217 10205 10190 10178 10165 10153 10145 10140 10133 10123 10112 10102 10091 10081 10073 10065 10058 10049 10041 10033 10024 10016 10009 10002 9995 9988 9982 9976 9970 9966 9963 9959 9955 9951 9946 9942 9939 9936 9934 9932 9930 9927 9926 9925 9924 9923 9922 9920 9919 9917 9916 9916 9916 9917 9918 9919 9920 9922 9924
10520 10512 10505 10496 10484 10473 10464 10454 10443 10433 10422 10410 10398 10387 10374 10361 10348 10333 10322 10317 10307 10289 10273 10266 10262 10247 10227 10213 10199 10185 10174 10162 10149 10139 10132 10125 10115 10103 10092 10083 10074 10066 10057 10050 10042 10032 10023 10013 10005 9999 9993 9987 9980 9974 9968 9962 9957 9954 9951 9947 9942 9938 9934 9932 9929 9926 9924 9922 9920 9918 9917 9916 9915 9914 9913 9912 9911 9909 9909 9909 9909 9910 9911 9912 9913 9915
10516 10508 10503 10497 10487 10475 10464 10453 10442 10428 10417 10406 10395 10384 10371 10356 10343 10330 10317 10309 10302 10287 10268 10260 10258 10243 10223 10209 10195 10179 10168 10156 10143 10131 10121 10113 10106 10095 10085 10075 10067 10059 10051 10044 10034 10024 10013 10002 9994 9988 9982 9977 9971 9966 9960 9954 9949 9946 9943 9940 9935 9930 9926 9925 9922 9919 9916 9914 9913 9911 9909 9908 9907 9906 9906 9905 9904 9903 9902 9902 9902 9902 9903 9904 9906 9907
10511 10501 10493 10489 10484 10476 10466 10455 10444 10431 10416 10404 10391 10379 10366 10350 10336 10324 10312 10301 10294 10283 10262 10247 10247 10241 10222 10206 10191 10175 10162 10149 10135 10122 10110 10099 10091 10083 10075 10066 10058 10050 10043 10035 10027 10016 10006 9994 9985 9978 9972 9966 9962 9958 9952 9947 9942 9938 9935 9931 9927 9922 9919 9917 9915 9912 9910 9907 9905 9904 9902 9900 9899 9899 9898 9898 9897 9897 9896 9895 9895 9895 9896 9897 9898 9900
10508 10497 10485 10476 10468 10460 10451 10441 10431 10423 10413 10400 10386 10371 10357 10345 10331 10317 10304 10291 10281 10275 10259 10236 10227 10228 10217 10201 10188 10173 10159 10145 10130 10119 10107 10093 10082 10073 10064 10055 10047 10038 10030 10023 10016 10008 9998 9986 9976 9968 9962 9956 9951 9948 9944 9938 9933 9930 9926 9923 9919 9914 9910 9909 9908 9905 9903 9900 9899 9897 9895 9894 9893 9892 9891 9891 9890 9890 9889 9889 9888 9888 9889 9889 9891 9892
10507 10495 10482 10470 10461 10451 10441 10431 10421 10411 10402 10391 10379 10366 10353 10340 10327 10311 10297 10284 10271 10263 10256 10236 10216 10209 10204 10193 10178 10164 10150 10136 10121 10110 10101 10089 10077 10067 10057 10046 10036 10026 10017 10009 10003 9996 9987 9977 9968 9960 9953 9946 9942 9938 9934 9930 9925 9921 9917 9914 9912 9908 9903 9901 9899 9898 9895 9893 9892 9890 9889 9888 9886 9885 9885 9884 9884 9883 9883 9883 9882 9882 9882 9883 9883 9885
10506 10496 10483 10470 10460 10450 10440 10430 10419 10405 10393 10382 10372 10363 10350 10335 10320 10306 10292 10280 10265 10253 10248 10238 10220 10204 10195 10184 10168 10150 10136 10124 10112 10101 10092 10082 10070 10059 10048 10039 10029 10020 10011 10002 9994 9986 9977 9968 9960 9953 9946 9940 9935 9931 9926 9922 9918 9914 9910 9907 9904 9901 9898 9894 9892 9890 9888 9886 9885 9883 9882 9881 9880 9879 9878 9878 9877 9877 9877 9877 9877 9876 9876 9876 9877 9877
10505 10496 10486 10473 10461 10450 10439 10427 10416 10404 10392 10379 10367 10355 10342 10327 10313 10301 10288 10276 10264 10248 10237 10230 10218 10200 10183 10169 10155 10140 10126 10113 10101 10091 10082 10072 10062 10051 10041 10032 10024 10015 10006 9997 9988 9979 9970 9961 9953 9947 9940 9935 9931 9927 9922 9917 9912 9908 9904 9901 9898 9895 9892 9889 9886 9883 9880 9879 9878 9877 9876 9875 9874 9873 9872 9872 9871 9871 9871 9871 9871 9871 9871 9871 9871 9871
10502 10494 10486 10475 10463 10451 10439 10426 10414 10403 10391 10378 10364 10351 10339 10326 10310 10296 10285 10274 10263 10248 10231 10217 10205 10189 10171 10157 10144 10132 10119 10106 10094 10084 10073 10062 10052 10044 10034 10025 10017 10009 10000 9991 9982 9974 9965 9956 9947 9940 9933 9928 9924 9921 9917 9912 9907 9903 9898 9895 9893 9890 9887 9884 9880 9877 9874 9872 9871 9870 9869 9869 9868 9867 9866 9866 9865 9865 9865 9865 9865 9865 9865 9865 9865 9865
10501 10492 10484 10474 10463 10452 10441 10429 10415 10401 10387 10375 10364 10352 10339 10328 10311 10293 10280 10269 10257 10245 10229 10210 10195 10183 10169 10156 10142 10128 10113 10100 10089 10080 10070 10058 10047 10039 10031 10022 10012 10002 9993 9984 9975 9967 9959 9951 9942 9933 9926 9921 9917 9914 9910 9906 9902 9897 9892 9889 9886 9884 9882 9879 9876 9872 9869 9866 9864 9863 9863 9863 9863 9862 9861 9860 9860 9859 9859 9859 9859 9859 9859 9859 9859 9860
10498 10490 10482 10473 10462 10450 10438 10426 10414 10403 10390 10377 10365 10353 10339 10326 10310 10290 10272 10258 10242 10227 10215 10201 10186 10175 10164 10152 10140 10126 10110 10095 10083 10075 10067 10056 10045 10034 10024 10014 10005 9995 9985 9976 9966 9958 9951 9944 9936 9928 9921 9916 9912 9908 9904 9901 9896 9892 9887 9883 9880 9878 9876 9873 9871 9868 9865 9862 9860 9858 9857 9857 9856 9856 9855 9854 9854 9854 9853 9853 9853 9853 9853 9853 9854 9855
10494 10485 10477 10468 10458 10448 10437 10423 10409 10398 10388 10374 10360 10347 10333 10320 10306 10287 10268 10252 10235 10215 10199 10187 10176 10165 10155 10144 10133 10121 10106 10090 10076 10066 10057 10047 10037 10027 10016 10004 9995 9985 9976 9967 9959 9951 9944 9936 9928 9922 9917 9912 9908 9904 9900 9896 9891 9887 9883 9879 9875 9872 9870 9868 9867 9864 9861 9858 9855 9853 9852 9851 9850 9850 9849 9849 9848 9848 9848 9847 9847 9847 9848 9848 9849 9849
10490 10480 10470 10461 10451 10440 10430 10420 10407 10392 10378 10365 10351 10337 10325 10312 10300 10283 10261 10243 10230 10215 10200 10187 10175 10162 10149 10135 10123 10110 10096 10080 10066 10056 10047 10037 10026 10018 10009 9998 9987 9978 9970 9961 9953 9946 9940 9932 9923 9916 9911 9907 9903 9899 9895 9891 9886 9882 9878 9874 9870 9867 9865 9863 9862 9860 9857 9854 9851 9849 9847 9846 9845 9845 9844 9843 9842 9842 9842 9842 9842 9842 9843 9843 9843 9843
10487 10477 10467 10455 10444 10433 10420 10409 10397 10382 10367 10354 10342 10331 10319 10305 10292 10279 10259 10239 10223 10212 10201 10188 10173 10156 10140 10126 10113 10101 10089 10074 10060 10049 10041 10031 10021 10012 10004 9995 9985 9975 9967 9958 9949 9942 9936 9929 9920 9912 9906 9902 9897 9893 9889 9885 9881 9877 9874 9870 9866 9863 9860 9857 9855 9854 9852 9849 9846 9844 9843 9842 9841 9840 9839 9837 9836 9836 9836 9837 9837 9837 9838 9838 9837 9837
10482 10472 10462 10451 10440 10429 10417 10403 10389 10376 10364 10352 10340 10327 10312 10297 10280 10266 10251 10234 10218 10203 10190 10178 10163 10147 10131 10118 10106 10096 10086 10073 10060 10049 10038 10028 10020 10011 10001 9992 9982 9972 9961 9952 9943 9936 9931 9924 9916 9908 9902 9898 9893 9888 9883 9879 9875 9872 9868 9865 9862 9859 9856 9853 9850 9848 9846 9844 9842 9840 9839 9838 9837 9836 9834 9832 9831 9831 9831 9831 9832 9832 9833 9832 9832 9832
10478 10466 10456 10445 10432 10420 10411 10401 10391 10379 10364 10347 10331 10315 10299 10284 10268 10251 10235 10221 10208 10194 10178 10164 10151 10139 10126 10113 10101 10092 10085 10075 10062 10049 10038 10026 10016 10006 9995 9982 9971 9963 9954 9945 9936 9929 9923 9917 9910 9903 9898 9893 9889 9884 9879 9874 9870 9866 9863 9860 9856 9853 9851 9848 9846 9843 9840 9838 9836 9835 9834 9833 9833 9832 9830 9828 9827 9827 9827 9827 9827 9828 9828 9828 9828 9828
10474 10463 10450 10438 10426 10413 10402 10390 10378 10366 10352 10336 10318 10301 10285 10271 10258 10247 10234 10218 10201 10187 10172 10158 10145 10133 10120 10107 10095 10084 10077 10070 10059 10046 10034 10022 10010 9999 9989 9976 9964 9954 9946 9939 9932 9925 9919 9911 9904 9898 9893 9888 9884 9879 9875 9870 9865 9861 9858 9854 9851 9848 9846 9844 9841 9838 9836 9833 9832 9830 9829 9829 9828 9827 9825 9824 9824 9823 9823 9823 9823 9823 9823 9823 9823 9823
10469 10458 10446 10433 10421 10409 10395 10380 10364 10350 10338 10325 10311 10296 10280 10264 10251 10242 10233 10221 10202 10183 10167 10154 10141 10128 10115 10102 10090 10076 10063 10056 10049 10039 10028 10016 10002 9990 9980 9971 9961 9951 9942 9933 9925 9919 9913 9908 9900 9893 9888 9884 9880 9875 9870 9865 9860 9856 9853 9850 9846 9843 9841 9839 9837 9834 9832 9830 9827 9826 9825 9823 9822 9821 9820 9820 9820 9820 9819 9819 9819 9819 9819 9819 9819 9819
10464 10453 10443 10432 10420 10407 10393 10379 10365 10348 10333 10320 10307 10296 10283 10269 10253 10238 10224 10212 10197 10179 10162 10149 10139 10127 10114 10099 10086 10071 10055 10042 10034 10026 10016 10006 9995 9983 9972 9963 9955 9947 9938 9929 9921 9913 9907 9902 9897 9890 9883 9878 9874 9870 9866 9861 9857 9853 9849 9846 9842 9840 9838 9835 9833 9831 9829 9826 9824 9822 9820 9819 9818 9817 9816 9815 9815 9815 9815 9815 9815 9815 9815 9815 9815 9815
10464 10452 10440 10428 10416 10404 10391 10379 10367 10352 10337 10322 10306 10290 10278 10268 10254 10235 10215 10198 10186 10175 10162 10149 10137 10126 10114 10097 10081 10067 10054 10040 10028 10018 10008 9999 9989 9979 9969 9959 9949 9939 9930 9923 9916 9908 9902 9896 9892 9887 9881 9875 9870 9865 9862 9858 9853 9849 9846 9842 9839 9836 9834 9832 9830 9827 9825 9823 9820 9818 9816 9815 9814 9813 9812 9812 9811 9811 9811 9811 9811 9811 9811 9811 9812 9812
10464 10451 10438 10425 10412 10398 10385 10374 10365 10352 10336 10321 10305 10287 10270 10254 10238 10223 10208 10194 10183 10174 10162 10148 10134 10122 10111 10096 10080 10066 10054 10041 10027 10016 10005 9995 9985 9975 9964 9955 9946 9935 9926 9917 9910 9903 9897 9892 9886 9881 9876 9871 9866 9861 9858 9853 9849 9845 9842 9838 9835 9833 9831 9828 9826 9824 9821 9819 9816 9814 9813 9811 9810 9810 9809 9808 9808 9807 9807 9807 9808 9808 9808 9808 9808 9808
10459 10447 10434 10420 10407 10395 10380 10364 10350 10337 10323 10310 10298 10284 10265 10245 10228 10215 10206 10195 10183 10171 10160 10147 10132 10118 10106 10093 10080 10066 10052 10039 10027 10017 10006 9994 9983 9972 9960 9950 9942 9933 9924 9915 9907 9900 9893 9888 9883 9878 9872 9867 9862 9858 9854 9850 9846 9842 9839 9835 9832 9829 9827 9825 9822 9820 9817 9815 9813 9811 9810 9808 9808 9807 9806 9805 9805 9804 9804 9804 9804 9805 9805 9805 9806 9806
10456 10443 10430 10416 10401 10388 10375 10360 10346 10334 10321 10305 10290 10277 10262 10248 10235 10222 10208 10194 10179 10167 10156 10144 10130 10116 10103 10091 10077 10063 10050 10037 10025 10015 10006 9995 9983 9971 9959 9949 9940 9932 9923 9913 9904 9897 9891 9886 9880 9875 9870 9864 9859 9854 9851 9847 9843 9839 9836 9833 9830 9827 9824 9821 9819 9817 9814 9812 9810 9808 9807 9806 9805 9804 9804 9803 9802 9802 9802 9802 9802 9802 9802 9803 9803 9803
10455 10442 10430 10418 10405 10389 10375 10364 10352 10341 10329 10312 10294 10279 10265 10253 10241 10227 10211 10195 10178 10162 10149 10139 10127 10113 10099 10087 10073 10060 10048 10037 10024 10012 10003 9993 9981 9968 9957 9947 9938 9929 9920 9911 9901 9893 9887 9883 9878 9873 9868 9862 9857 9852 9847 9844 9841 9837 9833 9831 9828 9825 9822 9819 9816 9814 9812 9809 9808 9806 9804 9803 9803 9802 9802 9801 9800 9800 9800 9800 9800 9800 9800 9800 9800 9800
10456 10444 10431 10421 10414 10404 10390 10375 10360 10346 10334 10322 10306 10289 10272 10256 10241 10226 10211 10196 10180 10163 10147 10135 10123 10109 10094 10081 10069 10057 10045 10034 10023 10010 9998 9987 9977 9967 9956 9945 9935 9926 9918 9910 9900 9891 9885 9879 9875 9870 9866 9860 9855 9849 9845 9841 9838 9834 9831 9828 9825 9823 9820 9817 9815 9812 9810 9807 9806 9804 9803 9802 9801 9800 9800 9799 9799 9798 9798 9798 9798 9798 9798 9798 9798 9798
10458 10447 10436 10425 10416 10407 10395 10379 10360 10341 10327 10316 10305 10292 10279 10263 10245 10228 10211 10197 10184 10168 10149 10133 10120 10108 10095 10081 10068 10055 10041 10028 10017 10006 9995 9984 9973 9964 9954 9943 9934 9924 9916 9908 9901 9892 9884 9878 9873 9868 9863 9859 9853 9848 9843 9839 9835 9831 9828 9826 9823 9820 9817 9815 9813 9810 9808 9806 9804 9802 9801 9801 9799 9799 9798 9798 9797 9797 9797 9796 9796 9796 9796 9796 9796 9796
10456 10446 10438 10427 10414 10402 10393 10384 10372 10355 10336 10319 10306 10292 10278 10263 10247 10230 10214 10200 10187 10173 10156 10137 10120 10106 10094 10081 10067 10054 10039 10025 10012 10001 9992 9981 9970 9959 9949 9940 9931 9923 9914 9906 9899 9891 9884 9877 9872 9867 9862 9858 9853 9847 9843 9839 9834 9831 9827 9824 9821 9818 9815 9813 9811 9808 9806 9804 9803 9801 9800 9799 9798 9798 9797 9796 9796 9796 9795 9795 9795 9795 9795 9795 9795 9795
10456 10447 10437 10427 10416 10405 10393 10383 10374 10362 10346 10328 10310 10292 10275 10258 10243 10228 10215 10201 10186 10172 10158 10143 10126 10108 10091 10077 10064 10052 10038 10024 10011 9999 9988 9979 9969 9958 9948 9938 9929 9921 9912 9904 9898 9891 9884 9877 9871 9866 9861 9857 9852 9847 9842 9837 9833 9830 9826 9822 9819 9816 9814 9812 9809 9807 9805 9803 9802 9800 9799 9798 9797 9796 9796 9795 9795 9794 9794 9794 9794 9794 9794 9794 9794 9794
10458 10449 10438 10425 10412 10398 10382 10367 10354 10343 10331 10317 10302 10286 10271 10256 10241 10226 10212 10198 10183 10167 10152 10139 10126 10111 10093 10075 10060 10048 10035 10022 10011 10000 9988 9977 9967 9957 9947 9938 9930 9921 9912 9903 9896 9891 9884 9877 9871 9865 9860 9855 9850 9845 9840 9836 9831 9828 9824 9820 9817 9815 9813 9810 9808 9805 9804 9802 9801 9800 9799 9798 9797 9796 9795 9795 9794 9794 9794 9793 9793 9793 9793 9793 9793 9793
10453 10444 10433 10419 10403 10387 10373 10360 10348 10335 10322 10308 10296 10283 10270 10256 10240 10224 10209 10194 10179 10163 10146 10130 10117 10105 10092 10076 10060 10046 10034 10021 10009 10000 9989 9978 9967 9957 9946 9936 9928 9921 9912 9903 9896 9889 9882 9876 9870 9863 9858 9853 9848 9843 9839 9834 9830 9826 9822 9819 9816 9814 9811 9809 9806 9804 9803 9802 9801 9799 9798 9797 9796 9796 9795 9795 9794 9794 9793 9792 9792 9792 9792 9792 9792 9792